Location: ?ejeti?ky
(50.4060°N, 14.9016°E)
Time: 09:06:23
(UTC+00:00)

USA 229 - Pass Details

Date: 07 June 2020
Orbit: 980 x 1233 km, 63.4° (Epoch: 24 June)

Event Time Altitude Azimuth Distance (km) Brightness Sun altitude
Rises 01:06:55 0° 315° (NW) 3,952 6.9 -11.6°
Reaches altitude 10° 01:09:37 10° 311° (NW) 3,026 6.2 -11.3°
Maximum altitude 01:16:34 51° 238° (WSW) 1,457 4.1 -10.8°
Drops below altitude 10° 01:23:50 10° 166° (SSE) 3,157 5.8 -10.1°
Sets 01:26:43 0° 161° (SSE) 4,135 6.4 -9.9°
